sat.trackr.live / text

‹ back to catalog

ALSAT-2A

NORAD 36798 · 2010-035D

PAYLOAD ACTIVE UNKNOWN

§ Identity

Operator
Country
ALG
Launch date
2010-07-12
Launch site
SRILR
Launch vehicle
Mass (kg)
RCS (m²)
0.79

External: N2YO · Heavens-Above · Gunter

§ Orbital elements

Epoch: 2026-09-20T05:19:48.042048Z

Period
97.65 min
Inclination
97.7696°
Eccentricity
0.0001116
Mean motion
14.74594850 rev/d
Perigee alt
645.7 km
Apogee alt
647.2 km
Semi-major
7,024.6 km
B*
3.5439e-5
RAAN
261.8995°
Arg perigee
69.1688°
Mean anomaly
290.9640°
Rev number
86,776

§ Raw data

ALSAT-2A1 36798U 10035D   26263.22208382  .00000189  00000+0  35439-4 0  99932 36798  97.7696 261.8995 0001116  69.1688 290.9640 14.74594850867767

JSON: /api/v1/satellites/36798 · /tle

For live sub-satellite position, see the globe view (requires WebGL).

§ Visibility from observer

Set your observer location to see the next 7 days of passes ≥ 10°. The values pass through the URL so the page stays shareable.

No JS? Fill the form by hand. The geolocation button needs JavaScript.

§ Radio — SatNOGS DB

ModeDescriptionDownlinkUplink
BPSK S-band telemetry 2.267 GHz

1 transmitter · refreshed weekly from db.satnogs.org